| time (UTC) | temp C | wind direction | speed KPH | gust KPH | rain 1hr cm | rain 24hr cm | rain mn cm | humidity % | barometer mb |
| 20260906141158 | 29 | 16 | 1.6 | 1.6 | 0.00 | 0.00 | 0.00 | 90 | 1013.2 |
| 20260906140657 | 28 | 304 | 4.8 | 4.8 | 0.00 | 0.00 | 0.00 | 90 | 1013.2 |
| 20260906140153 | 29 | 299 | 4.8 | 4.8 | 0.00 | 0.00 | 0.00 | 90 | 1013.1 |
| 20260906135649 | 28 | 11 | 1.6 | 1.6 | 0.00 | 0.00 | 0.00 | 90 | 1013.2 |
| 20260906135145 | 28 | 18 | 3.2 | 3.2 | 0.00 | 0.00 | 0.00 | 91 | 1013.4 |
| 20260906134641 | 28 | 6 | 1.6 | 1.6 | 0.00 | 0.00 | 0.00 | 92 | 1013.1 |
| 20260906134136 | 28 | 354 | 3.2 | 3.2 | 0.00 | 0.00 | 0.00 | 92 | 1013.2 |
| 20260906133632 | 28 | 270 | 6.4 | 8.0 | 0.00 | 0.00 | 0.00 | 92 | 1013.1 |
| 20260906133126 | 28 | 348 | 1.6 | 1.6 | 0.00 | 0.00 | 0.00 | 94 | 1013.4 |
| 20260906132621 | 27 | 342 | 1.6 | 3.2 | 0.00 | 0.00 | 0.00 | 94 | 1013.4 |
| 20260906132117 | 27 | 334 | 4.8 | 4.8 | 0.00 | 0.00 | 0.00 | 96 | 1013.3 |
| 20260906131613 | 27 | 3 | 3.2 | 3.2 | 0.00 | 0.00 | 0.00 | 97 | 1013.4 |
| 20260906131108 | 27 | 341 | 3.2 | 3.2 | 0.00 | 0.00 | 0.00 | 98 | 1013.3 |
| 20260906130602 | 26 | 13 | 3.2 | 3.2 | 0.00 | 0.00 | 0.00 | 98 | 1013.2 |
| 20260906130057 | 26 | 291 | 6.4 | 8.0 | 0.00 | 0.00 | 0.00 | 98 | 1013.7 |
| 20260906125554 | 26 | 352 | 3.2 | 3.2 | 0.00 | 0.00 | 0.00 | 99 | 1013.3 |
| 20260906125048 | 25 | 283 | 6.4 | 8.0 | 0.00 | 0.00 | 0.00 | 99 | 1013.3 |
| 20260906124544 | 25 | 356 | 1.6 | 1.6 | 0.00 | 0.00 | 0.00 | 99 | 1013.4 |
| 20260906124039 | 25 | 9 | 1.6 | 1.6 | 0.00 | 0.00 | 0.00 | 99 | 1013.2 |
| 20260906123538 | 25 | 13 | 1.6 | 1.6 | 0.00 | 0.00 | 0.00 | 99 | 1013.6 |
| 20260906123033 | 25 | 6 | 1.6 | 1.6 | 0.00 | 0.00 | 0.00 | 99 | 1013.5 |
| 20260906122527 | 25 | 343 | 1.6 | 3.2 | 0.00 | 0.00 | 0.00 | 99 | 1013.7 |
| 20260906122024 | 25 | 12 | 1.6 | 1.6 | 0.00 | 0.00 | 0.00 | 99 | 1013.5 |
| 20260906121519 | 24 | 359 | 1.6 | 1.6 | 0.00 | 0.00 | 0.00 | 99 | 1013.4 |
| 20260906121015 | 24 | 12 | 1.6 | 1.6 | 0.00 | 0.00 | 0.00 | 99 | 1013.3 |
| 20260906120516 | 24 | 9 | 0.0 | 0.0 | 0.00 | 0.00 | 0.00 | 99 | 1013.1 |
| 20260906120013 | 24 | 8 | 0.0 | 0.0 | 0.00 | 0.00 | 0.00 | 99 | 1013.3 |
| 20260906115508 | 23 | 13 | 0.0 | 0.0 | 0.00 | 0.00 | 0.00 | 99 | 1013.4 |
| 20260906115002 | 23 | 13 | 0.0 | 0.0 | 0.00 | 0.00 | 0.00 | 99 | 1013.2 |
| 20260906114456 | 23 | 17 | 0.0 | 0.0 | 0.00 | 0.00 | 0.00 | 99 | 1013.0 |
| 20260906113953 | 23 | 7 | 0.0 | 0.0 | 0.00 | 0.00 | 0.00 | 99 | 1012.9 |
| 20260906113451 | 23 | 4 | 0.0 | 0.0 | 0.00 | 0.00 | 0.00 | 99 | 1012.8 |
| 20260906112947 | 23 | 359 | 0.0 | 0.0 | 0.00 | 0.00 | 0.00 | 99 | 1012.7 |
| 20260906112442 | 23 | 5 | 0.0 | 0.0 | 0.00 | 0.00 | 0.00 | 99 | 1012.5 |
| 20260906111938 | 23 | 7 | 0.0 | 0.0 | 0.00 | 0.00 | 0.00 | 99 | 1012.6 |
| 20260906111437 | 23 | 7 | 0.0 | 0.0 | 0.00 | 0.00 | 0.00 | 99 | 1012.5 |
| 20260906110932 | 23 | 8 | 0.0 | 0.0 | 0.00 | 0.00 | 0.00 | 99 | 1012.6 |
| 20260906110427 | 23 | 8 | 0.0 | 0.0 | 0.00 | 0.00 | 0.00 | 99 | 1012.5 |
| 20260906105926 | 23 | 8 | 0.0 | 0.0 | 0.00 | 0.00 | 0.00 | 99 | 1012.2 |
| 20260906105422 | 23 | 8 | 0.0 | 0.0 | 0.00 | 0.00 | 0.00 | 99 | 1012.4 |
| 20260906104918 | 23 | 8 | 0.0 | 0.0 | 0.00 | 0.00 | 0.00 | 99 | 1012.2 |
| 20260906104416 | 23 | 8 | 0.0 | 0.0 | 0.00 | 0.00 | 0.00 | 99 | 1012.1 |
| 20260906103916 | 23 | 8 | 0.0 | 0.0 | 0.00 | 0.00 | 0.00 | 99 | 1012.1 |
| 20260906103414 | 23 | 5 | 0.0 | 0.0 | 0.00 | 0.00 | 0.00 | 99 | 1012.1 |
| 20260906102910 | 23 | 10 | 0.0 | 0.0 | 0.00 | 0.00 | 0.00 | 99 | 1012.0 |
| 20260906102409 | 23 | 9 | 0.0 | 0.0 | 0.00 | 0.00 | 0.00 | 99 | 1012.0 |
| 20260906101904 | 23 | 13 | 0.0 | 0.0 | 0.00 | 0.00 | 0.00 | 99 | 1012.2 |
| 20260906101359 | 23 | 8 | 0.0 | 0.0 | 0.00 | 0.00 | 0.00 | 99 | 1012.2 |
| 20260906100855 | 23 | 8 | 0.0 | 0.0 | 0.00 | 0.00 | 0.00 | 99 | 1012.1 |
| 20260906100354 | 23 | 7 | 0.0 | 0.0 | 0.00 | 0.00 | 0.00 | 99 | 1012.2 |
| 20260906095849 | 23 | 1 | 0.0 | 0.0 | 0.00 | 0.00 | 0.00 | 99 | 1012.1 |
| 20260906095344 | 23 | 13 | 0.0 | 0.0 | 0.00 | 0.00 | 0.00 | 99 | 1012.3 |
| 20260906094844 | 23 | 13 | 0.0 | 0.0 | 0.00 | 0.00 | 0.00 | 99 | 1012.2 |
| 20260906094339 | 23 | 13 | 0.0 | 0.0 | 0.00 | 0.00 | 0.00 | 99 | 1012.3 |
| 20260906093835 | 23 | 13 | 0.0 | 0.0 | 0.00 | 0.00 | 0.00 | 99 | 1012.2 |
| 20260906093331 | 23 | 13 | 0.0 | 0.0 | 0.00 | 0.00 | 0.00 | 99 | 1012.1 |
| 20260906092826 | 23 | 13 | 0.0 | 0.0 | 0.00 | 0.00 | 0.00 | 99 | 1012.2 |
| 20260906092325 | 23 | 13 | 0.0 | 0.0 | 0.00 | 0.00 | 0.00 | 99 | 1012.3 |
| 20260906091821 | 23 | 13 | 0.0 | 0.0 | 0.00 | 0.00 | 0.00 | 99 | 1012.0 |
| 20260906091317 | 23 | 11 | 0.0 | 0.0 | 0.00 | 0.00 | 0.00 | 99 | 1012.1 |
| 20260906090814 | 23 | 16 | 0.0 | 0.0 | 0.00 | 0.00 | 0.00 | 99 | 1011.8 |
| 20260906090312 | 23 | 21 | 0.0 | 0.0 | 0.00 | 0.00 | 0.00 | 99 | 1011.9 |
| 20260906085812 | 23 | 18 | 0.0 | 0.0 | 0.00 | 0.00 | 0.00 | 99 | 1011.9 |
| 20260906085307 | 23 | 33 | 0.0 | 0.0 | 0.00 | 0.00 | 0.00 | 99 | 1011.7 |
| 20260906084800 | 23 | 21 | 0.0 | 0.0 | 0.00 | 0.00 | 0.00 | 99 | 1011.8 |
| 20260906084300 | 23 | 31 | 0.0 | 0.0 | 0.00 | 0.00 | 0.00 | 99 | 1011.8 |
| 20260906083755 | 23 | 24 | 0.0 | 0.0 | 0.00 | 0.00 | 0.00 | 99 | 1011.8 |
| 20260906083251 | 24 | 31 | 0.0 | 0.0 | 0.00 | 0.00 | 0.00 | 99 | 1011.6 |
| 20260906082745 | 24 | 41 | 0.0 | 0.0 | 0.00 | 0.00 | 0.00 | 99 | 1011.6 |
| 20260906082240 | 24 | 7 | 0.0 | 0.0 | 0.00 | 0.00 | 0.00 | 99 | 1011.7 |
| 20260906081737 | 24 | 358 | 0.0 | 0.0 | 0.00 | 0.00 | 0.00 | 99 | 1011.6 |
| 20260906081231 | 24 | 8 | 0.0 | 0.0 | 0.00 | 0.00 | 0.00 | 99 | 1011.5 |
| 20260906080727 | 24 | 8 | 0.0 | 0.0 | 0.00 | 0.00 | 0.00 | 99 | 1011.6 |
| 20260906080224 | 24 | 6 | 0.0 | 0.0 | 0.00 | 0.00 | 0.00 | 99 | 1011.7 |
| 20260906075717 | 24 | 8 | 0.0 | 0.0 | 0.00 | 0.00 | 0.00 | 99 | 1011.5 |
| 20260906075212 | 24 | 358 | 0.0 | 0.0 | 0.00 | 0.00 | 0.00 | 99 | 1011.7 |
| 20260906074707 | 24 | 5 | 1.6 | 3.2 | 0.00 | 0.00 | 0.00 | 99 | 1011.7 |
| 20260906074207 | 24 | 358 | 0.0 | 0.0 | 0.00 | 0.00 | 0.00 | 99 | 1011.5 |
| 20260906073702 | 23 | 349 | 1.6 | 1.6 | 0.00 | 0.00 | 0.00 | 99 | 1011.6 |
| 20260906073157 | 23 | 0 | 0.0 | 0.0 | 0.00 | 0.00 | 0.00 | 99 | 1011.6 |
| 20260906072652 | 23 | 0 | 0.0 | 0.0 | 0.00 | 0.00 | 0.00 | 99 | 1011.6 |
| 20260906072148 | 23 | 358 | 0.0 | 0.0 | 0.00 | 0.00 | 0.00 | 99 | 1011.6 |
| 20260906071644 | 23 | 357 | 0.0 | 0.0 | 0.00 | 0.00 | 0.00 | 99 | 1011.8 |
| 20260906071143 | 23 | 345 | 0.0 | 0.0 | 0.00 | 0.00 | 0.00 | 99 | 1011.9 |
| 20260906070640 | 23 | 3 | 0.0 | 0.0 | 0.00 | 0.00 | 0.00 | 99 | 1011.8 |
| 20260906070136 | 23 | 20 | 0.0 | 0.0 | 0.00 | 0.00 | 0.00 | 99 | 1012.0 |
| 20260906065635 | 23 | 20 | 0.0 | 0.0 | 0.00 | 0.00 | 0.00 | 99 | 1011.9 |
| 20260906065131 | 23 | 20 | 0.0 | 0.0 | 0.00 | 0.00 | 0.00 | 99 | 1011.7 |
| 20260906064626 | 23 | 20 | 0.0 | 0.0 | 0.00 | 0.00 | 0.00 | 99 | 1012.2 |
| 20260906064121 | 23 | 20 | 0.0 | 0.0 | 0.00 | 0.00 | 0.00 | 99 | 1012.0 |
| 20260906063616 | 23 | 20 | 0.0 | 0.0 | 0.00 | 0.00 | 0.00 | 99 | 1011.9 |
| 20260906063112 | 23 | 20 | 0.0 | 0.0 | 0.00 | 0.00 | 0.00 | 99 | 1012.1 |
| 20260906062608 | 23 | 20 | 0.0 | 0.0 | 0.00 | 0.00 | 0.00 | 99 | 1012.0 |
| 20260906062106 | 23 | 20 | 0.0 | 0.0 | 0.00 | 0.00 | 0.00 | 99 | 1012.1 |
| 20260906061603 | 24 | 20 | 0.0 | 0.0 | 0.00 | 0.00 | 0.00 | 99 | 1012.3 |
| 20260906061102 | 23 | 20 | 0.0 | 0.0 | 0.00 | 0.00 | 0.00 | 99 | 1011.9 |
| 20260906060559 | 24 | 20 | 0.0 | 0.0 | 0.00 | 0.00 | 0.00 | 99 | 1012.1 |
| 20260906060056 | 24 | 20 | 0.0 | 0.0 | 0.00 | 0.00 | 0.00 | 99 | 1012.2 |
| 20260906055551 | 24 | 20 | 0.0 | 0.0 | 0.00 | 0.00 | 0.00 | 99 | 1012.2 |
| 20260906055046 | 24 | 20 | 0.0 | 0.0 | 0.00 | 0.00 | 0.00 | 99 | 1012.1 |
| 20260906054541 | 24 | 20 | 0.0 | 0.0 | 0.00 | 0.00 | 0.00 | 99 | 1012.3 |
| 20260906054036 | 24 | 20 | 0.0 | 0.0 | 0.00 | 0.00 | 0.00 | 99 | 1012.3 |
| 20260906053533 | 24 | 20 | 0.0 | 0.0 | 0.00 | 0.00 | 0.00 | 99 | 1012.3 |
| 20260906053028 | 24 | 20 | 0.0 | 0.0 | 0.00 | 0.00 | 0.00 | 99 | 1012.6 |
| 20260906052524 | 24 | 18 | 0.0 | 0.0 | 0.00 | 0.00 | 0.00 | 99 | 1012.6 |
| 20260906052021 | 25 | 20 | 0.0 | 0.0 | 0.00 | 0.00 | 0.00 | 99 | 1012.8 |
| 20260906051516 | 25 | 14 | 0.0 | 0.0 | 0.00 | 0.00 | 0.00 | 99 | 1012.2 |
| 20260906051011 | 25 | 10 | 0.0 | 0.0 | 0.00 | 0.00 | 0.00 | 99 | 1012.5 |
| 20260906050506 | 25 | 12 | 0.0 | 0.0 | 0.00 | 0.00 | 0.00 | 99 | 1012.1 |
| 20260906050000 | 25 | 22 | 0.0 | 0.0 | 0.00 | 0.00 | 0.00 | 99 | 1012.2 |
| 20260906045459 | 25 | 13 | 0.0 | 0.0 | 0.00 | 0.00 | 0.00 | 99 | 1012.4 |
| 20260906044955 | 25 | 22 | 0.0 | 0.0 | 0.00 | 0.00 | 0.00 | 99 | 1012.4 |
| 20260906044449 | 25 | 8 | 0.0 | 0.0 | 0.00 | 0.00 | 0.00 | 99 | 1012.4 |
| 20260906043946 | 25 | 8 | 0.0 | 0.0 | 0.00 | 0.00 | 0.00 | 99 | 1012.6 |
| 20260906043441 | 25 | 7 | 0.0 | 0.0 | 0.00 | 0.00 | 0.00 | 99 | 1012.4 |
| 20260906042936 | 25 | 342 | 1.6 | 1.6 | 0.00 | 0.00 | 0.00 | 99 | 1012.6 |
| 20260906042436 | 25 | 8 | 0.0 | 0.0 | 0.00 | 0.00 | 0.00 | 99 | 1012.3 |
| 20260906041930 | 25 | 261 | 0.0 | 1.6 | 0.00 | 0.00 | 0.00 | 99 | 1012.2 |
| 20260906041427 | 25 | 350 | 0.0 | 0.0 | 0.00 | 0.00 | 0.00 | 99 | 1012.5 |
| 20260906040926 | 25 | 357 | 0.0 | 0.0 | 0.00 | 0.00 | 0.00 | 99 | 1012.5 |
| 20260906040422 | 25 | 6 | 0.0 | 0.0 | 0.00 | 0.00 | 0.00 | 99 | 1012.7 |
| 20260906035917 | 25 | 3 | 0.0 | 0.0 | 0.00 | 1.65 | 1.65 | 99 | 1012.7 |
| 20260906035413 | 25 | 3 | 0.0 | 0.0 | 0.00 | 1.65 | 1.65 | 99 | 1012.9 |
| 20260906034908 | 25 | 344 | 1.6 | 1.6 | 0.00 | 1.65 | 1.65 | 99 | 1012.8 |
| 20260906034402 | 25 | 4 | 0.0 | 0.0 | 0.00 | 1.65 | 1.65 | 99 | 1013.1 |
| 20260906033858 | 25 | 13 | 0.0 | 0.0 | 0.00 | 1.65 | 1.65 | 99 | 1012.9 |
| 20260906033357 | 25 | 6 | 0.0 | 0.0 | 0.00 | 1.65 | 1.65 | 99 | 1013.1 |
| 20260906032853 | 25 | 14 | 0.0 | 0.0 | 0.00 | 1.65 | 1.65 | 99 | 1013.2 |
| 20260906032349 | 25 | 4 | 0.0 | 0.0 | 0.00 | 1.65 | 1.65 | 99 | 1013.3 |
| 20260906031844 | 25 | 12 | 0.0 | 0.0 | 0.00 | 1.65 | 1.65 | 99 | 1013.0 |
| 20260906031339 | 25 | 12 | 0.0 | 0.0 | 0.00 | 1.65 | 1.65 | 99 | 1013.3 |
| 20260906030839 | 25 | 5 | 0.0 | 0.0 | 0.00 | 1.65 | 1.65 | 99 | 1013.2 |
| 20260906030335 | 25 | 11 | 0.0 | 0.0 | 0.00 | 1.65 | 1.65 | 99 | 1013.4 |
| 20260906025829 | 25 | 0 | 0.0 | 0.0 | 0.00 | 1.65 | 1.65 | 99 | 1013.2 |
| 20260906025323 | 25 | 14 | 0.0 | 0.0 | 0.00 | 1.65 | 1.65 | 99 | 1013.2 |
| 20260906024822 | 25 | 6 | 0.0 | 0.0 | 0.00 | 1.65 | 1.65 | 99 | 1013.1 |
| 20260906024321 | 25 | 9 | 0.0 | 0.0 | 0.00 | 1.65 | 1.65 | 99 | 1013.4 |
| 20260906023817 | 25 | 9 | 0.0 | 0.0 | 0.00 | 1.65 | 1.65 | 99 | 1013.2 |
| 20260906023312 | 25 | 16 | 0.0 | 0.0 | 0.00 | 1.65 | 1.65 | 99 | 1013.2 |
| 20260906022808 | 26 | 12 | 0.0 | 0.0 | 0.00 | 1.65 | 1.65 | 99 | 1013.2 |
| 20260906022306 | 25 | 23 | 0.0 | 0.0 | 0.00 | 1.65 | 1.65 | 99 | 1013.1 |
| 20260906021759 | 26 | 23 | 0.0 | 0.0 | 0.00 | 1.65 | 1.65 | 99 | 1013.2 |
| 20260906021258 | 26 | 21 | 0.0 | 0.0 | 0.00 | 1.65 | 1.65 | 99 | 1013.2 |
| 20260906020753 | 26 | 14 | 0.0 | 0.0 | 0.00 | 1.65 | 1.65 | 99 | 1012.9 |
| 20260906020253 | 26 | 21 | 0.0 | 0.0 | 0.00 | 1.65 | 1.65 | 99 | 1012.8 |
| 20260906015753 | 26 | 8 | 0.0 | 0.0 | 0.00 | 1.65 | 1.65 | 99 | 1012.7 |
| 20260906015251 | 26 | 8 | 0.0 | 0.0 | 0.00 | 1.65 | 1.65 | 99 | 1012.8 |
| 20260906014746 | 26 | 349 | 1.6 | 1.6 | 0.00 | 1.65 | 1.65 | 99 | 1012.5 |
| 20260906014242 | 26 | 345 | 0.0 | 0.0 | 0.00 | 1.65 | 1.65 | 99 | 1012.4 |
| 20260906013737 | 26 | 359 | 0.0 | 1.6 | 0.00 | 1.65 | 1.65 | 99 | 1012.5 |
| 20260906013237 | 26 | 357 | 0.0 | 1.6 | 0.00 | 1.65 | 1.65 | 99 | 1012.3 |
| 20260906012733 | 26 | 309 | 1.6 | 1.6 | 0.00 | 1.65 | 1.65 | 99 | 1012.3 |
| 20260906012227 | 26 | 15 | 0.0 | 0.0 | 0.00 | 1.65 | 1.65 | 99 | 1012.4 |
| 20260906011723 | 26 | 8 | 0.0 | 0.0 | 0.00 | 1.65 | 1.65 | 99 | 1012.3 |
| 20260906011217 | 26 | 8 | 0.0 | 0.0 | 0.00 | 1.65 | 1.65 | 99 | 1012.2 |
| 20260906010713 | 26 | 5 | 0.0 | 0.0 | 0.00 | 1.65 | 1.65 | 99 | 1011.9 |
| 20260906010209 | 26 | 19 | 0.0 | 0.0 | 0.00 | 1.65 | 1.65 | 99 | 1012.2 |
| 20260906005708 | 26 | 19 | 0.0 | 0.0 | 0.00 | 1.65 | 1.65 | 99 | 1012.1 |
| 20260906005203 | 26 | 15 | 0.0 | 0.0 | 0.00 | 1.65 | 1.65 | 99 | 1012.0 |
| 20260906004701 | 26 | 24 | 0.0 | 0.0 | 0.00 | 1.65 | 1.65 | 99 | 1011.9 |
| 20260906004156 | 26 | 24 | 0.0 | 0.0 | 0.00 | 1.65 | 1.65 | 99 | 1011.9 |
| 20260906003652 | 26 | 22 | 0.0 | 0.0 | 0.00 | 1.65 | 1.65 | 99 | 1011.7 |
| 20260906003147 | 26 | 21 | 0.0 | 0.0 | 0.00 | 1.65 | 1.65 | 99 | 1011.6 |
| 20260906002642 | 26 | 21 | 0.0 | 0.0 | 0.00 | 1.65 | 1.65 | 99 | 1011.8 |
| 20260906002137 | 26 | 22 | 0.0 | 0.0 | 0.00 | 1.65 | 1.65 | 98 | 1011.5 |
| 20260906001632 | 27 | 21 | 0.0 | 0.0 | 0.00 | 1.65 | 1.65 | 98 | 1011.4 |
| 20260906001132 | 27 | 19 | 0.0 | 0.0 | 0.00 | 1.65 | 1.65 | 98 | 1011.3 |
| 20260906000628 | 27 | 19 | 0.0 | 0.0 | 0.00 | 1.65 | 1.65 | 98 | 1011.2 |
| 20260906000123 | 27 | 15 | 0.0 | 0.0 | 0.00 | 1.65 | 1.65 | 99 | 1011.1 |
| 20260905235621 | 27 | 15 | 0.0 | 0.0 | 0.00 | 1.65 | 1.65 | 99 | 1011.3 |
| 20260905235117 | 27 | 15 | 0.0 | 0.0 | 0.00 | 1.65 | 1.65 | 98 | 1011.1 |
| 20260905234612 | 27 | 15 | 1.6 | 1.6 | 0.00 | 1.65 | 1.65 | 98 | 1011.0 |
| 20260905234108 | 28 | 24 | 0.0 | 0.0 | 0.00 | 1.65 | 1.65 | 97 | 1011.2 |
| 20260905233602 | 28 | 25 | 0.0 | 0.0 | 0.00 | 1.65 | 1.65 | 96 | 1011.6 |
| 20260905233056 | 28 | 11 | 0.0 | 0.0 | 0.00 | 1.65 | 1.65 | 95 | 1011.2 |
| 20260905232552 | 29 | 11 | 0.0 | 0.0 | 0.00 | 1.65 | 1.65 | 94 | 1011.3 |
| 20260905232048 | 29 | 359 | 0.0 | 0.0 | 0.00 | 1.65 | 1.65 | 92 | 1011.3 |
| 20260905231543 | 30 | 353 | 0.0 | 1.6 | 0.00 | 1.65 | 1.65 | 89 | 1011.3 |
| 20260905231039 | 30 | 328 | 1.6 | 1.6 | 0.00 | 1.65 | 1.65 | 88 | 1011.4 |
| 20260905230538 | 30 | 7 | 0.0 | 0.0 | 0.00 | 1.65 | 1.65 | 88 | 1011.2 |
| 20260905230037 | 30 | 9 | 0.0 | 1.6 | 0.00 | 1.65 | 1.65 | 88 | 1011.3 |
| 20260905225531 | 30 | 4 | 0.0 | 0.0 | 0.00 | 1.65 | 1.65 | 87 | 1011.4 |
| 20260905225026 | 31 | 344 | 1.6 | 1.6 | 0.00 | 1.65 | 1.65 | 86 | 1011.6 |
| 20260905224521 | 31 | 328 | 3.2 | 3.2 | 0.00 | 1.65 | 1.65 | 84 | 1011.8 |
| 20260905224021 | 31 | 330 | 1.6 | 1.6 | 0.00 | 1.65 | 1.65 | 84 | 1012.0 |
| 20260905223518 | 31 | 0 | 1.6 | 1.6 | 0.00 | 1.65 | 1.65 | 83 | 1011.9 |
| 20260905223013 | 31 | 323 | 1.6 | 1.6 | 0.00 | 1.65 | 1.65 | 82 | 1012.0 |
| 20260905222508 | 32 | 352 | 1.6 | 3.2 | 0.00 | 1.65 | 1.65 | 81 | 1012.2 |
| 20260905222003 | 32 | 79 | 1.6 | 3.2 | 0.00 | 1.65 | 1.65 | 78 | 1012.1 |
| 20260905221500 | 32 | 290 | 4.8 | 4.8 | 0.00 | 1.65 | 1.65 | 77 | 1012.1 |
| 20260905220955 | 32 | 303 | 1.6 | 1.6 | 0.00 | 1.65 | 1.65 | 79 | 1012.0 |
| 20260905220451 | 32 | 4 | 0.0 | 1.6 | 0.00 | 1.65 | 1.65 | 79 | 1012.1 |
| 20260905215950 | 32 | 336 | 3.2 | 3.2 | 0.00 | 1.65 | 1.65 | 78 | 1012.3 |
| 20260905215446 | 32 | 293 | 4.8 | 4.8 | 0.00 | 1.65 | 1.65 | 78 | 1012.2 |
| 20260905214942 | 32 | 356 | 1.6 | 3.2 | 0.00 | 1.65 | 1.65 | 78 | 1012.2 |
| 20260905214437 | 32 | 350 | 1.6 | 1.6 | 0.00 | 1.65 | 1.65 | 79 | 1012.0 |
| 20260905213932 | 32 | 301 | 4.8 | 4.8 | 0.00 | 1.65 | 1.65 | 78 | 1012.3 |
| 20260905213428 | 32 | 348 | 3.2 | 3.2 | 0.00 | 1.65 | 1.65 | 78 | 1011.9 |
| 20260905212923 | 32 | 333 | 3.2 | 3.2 | 0.00 | 1.65 | 1.65 | 77 | 1012.1 |
| 20260905212418 | 32 | 327 | 3.2 | 3.2 | 0.00 | 1.65 | 1.65 | 77 | 1011.9 |
| 20260905211917 | 33 | 308 | 4.8 | 4.8 | 0.00 | 1.65 | 1.65 | 78 | 1012.2 |
| 20260905211413 | 32 | 1 | 0.0 | 0.0 | 0.00 | 1.65 | 1.65 | 79 | 1012.2 |
| 20260905210909 | 32 | 247 | 1.6 | 1.6 | 0.00 | 1.65 | 1.65 | 80 | 1012.1 |
| 20260905210409 | 31 | 2 | 0.0 | 0.0 | 0.00 | 1.65 | 1.65 | 82 | 1012.4 |
| 20260905205908 | 31 | 206 | 4.8 | 4.8 | 0.00 | 1.65 | 1.65 | 83 | 1012.0 |
| 20260905205403 | 31 | 264 | 1.6 | 1.6 | 0.00 | 1.65 | 1.65 | 82 | 1012.0 |
| 20260905204902 | 31 | 231 | 3.2 | 3.2 | 0.00 | 1.65 | 1.65 | 83 | 1012.1 |
| 20260905204358 | 30 | 358 | 0.0 | 0.0 | 0.00 | 1.65 | 1.65 | 87 | 1012.1 |
| 20260905203851 | 30 | 333 | 1.6 | 1.6 | 0.00 | 1.65 | 1.65 | 89 | 1012.1 |
| 20260905203347 | 30 | 338 | 1.6 | 3.2 | 0.00 | 1.65 | 1.65 | 90 | 1012.3 |
| 20260905202842 | 28 | 352 | 1.6 | 1.6 | 0.00 | 1.65 | 1.65 | 97 | 1012.1 |
| 20260905202337 | 28 | 0 | 1.6 | 1.6 | 0.00 | 1.65 | 1.65 | 98 | 1012.3 |
| 20260905201833 | 28 | 2 | 1.6 | 1.6 | 0.00 | 1.65 | 1.65 | 98 | 1012.5 |
| 20260905201328 | 27 | 22 | 0.0 | 1.6 | 0.00 | 1.65 | 1.65 | 98 | 1012.4 |
| 20260905200822 | 26 | 31 | 0.0 | 1.6 | 0.30 | 1.65 | 1.65 | 98 | 1012.6 |
| 20260905200319 | 27 | 340 | 3.2 | 3.2 | 0.30 | 1.65 | 1.65 | 97 | 1012.7 |
| 20260905195816 | 28 | 61 | 4.8 | 4.8 | 0.30 | 1.63 | 1.63 | 96 | 1012.6 |
| 20260905195311 | 29 | 26 | 1.6 | 1.6 | 0.18 | 1.60 | 1.60 | 92 | 1012.9 |
| 20260905194808 | 30 | 353 | 3.2 | 3.2 | 0.00 | 1.57 | 1.57 | 89 | 1012.7 |
| 20260905194306 | 31 | 345 | 1.6 | 1.6 | 0.00 | 1.57 | 1.57 | 86 | 1012.8 |
| 20260905193800 | 32 | 15 | 0.0 | 0.0 | 0.00 | 1.57 | 1.57 | 83 | 1012.4 |
| 20260905193255 | 32 | 4 | 1.6 | 1.6 | 0.00 | 1.57 | 1.57 | 83 | 1012.4 |
| 20260905192751 | 32 | 324 | 3.2 | 4.8 | 0.00 | 1.57 | 1.57 | 82 | 1012.7 |
| 20260905192247 | 32 | 355 | 1.6 | 1.6 | 0.00 | 1.57 | 1.57 | 82 | 1012.8 |
| 20260905191747 | 31 | 356 | 3.2 | 3.2 | 0.00 | 1.57 | 1.57 | 86 | 1013.1 |
| 20260905191245 | 32 | 5 | 3.2 | 4.8 | 0.00 | 1.57 | 1.57 | 83 | 1013.0 |
| 20260905190743 | 31 | 335 | 3.2 | 3.2 | 0.00 | 1.57 | 1.57 | 83 | 1012.9 |
| 20260905190243 | 30 | 319 | 6.4 | 9.7 | 0.00 | 1.57 | 1.57 | 88 | 1012.9 |
| 20260905185742 | 30 | 344 | 0.0 | 0.0 | 0.00 | 1.57 | 1.57 | 92 | 1012.8 |
| 20260905185236 | 28 | 6 | 3.2 | 3.2 | 0.00 | 1.57 | 1.57 | 95 | 1012.8 |
| 20260905184730 | 27 | 358 | 0.0 | 1.6 | 0.00 | 1.57 | 1.57 | 98 | 1013.1 |
| 20260905184229 | 27 | 351 | 1.6 | 1.6 | 0.00 | 1.57 | 1.57 | 99 | 1013.0 |
| 20260905183723 | 27 | 350 | 1.6 | 1.6 | 0.00 | 1.57 | 1.57 | 99 | 1013.1 |
| 20260905183219 | 27 | 358 | 0.0 | 1.6 | 0.00 | 1.57 | 1.57 | 99 | 1013.3 |
| 20260905182713 | 27 | 7 | 0.0 | 0.0 | 0.00 | 1.57 | 1.57 | 99 | 1013.4 |
| 20260905182213 | 27 | 3 | 1.6 | 1.6 | 0.00 | 1.57 | 1.57 | 99 | 1013.3 |
| 20260905181708 | 27 | 336 | 1.6 | 3.2 | 0.00 | 1.57 | 1.57 | 99 | 1013.6 |
| 20260905181207 | 27 | 358 | 0.0 | 1.6 | 0.00 | 1.57 | 1.57 | 99 | 1013.7 |
| 20260905180702 | 27 | 7 | 0.0 | 0.0 | 0.00 | 1.57 | 1.57 | 99 | 1013.7 |
| 20260905180157 | 26 | 7 | 0.0 | 0.0 | 0.00 | 1.57 | 1.57 | 99 | 1013.9 |
| 20260905175656 | 26 | 23 | 0.0 | 0.0 | 0.00 | 1.57 | 1.57 | 99 | 1013.8 |
| 20260905175152 | 26 | 15 | 0.0 | 0.0 | 0.00 | 1.57 | 1.57 | 99 | 1013.8 |
| 20260905174647 | 26 | 23 | 0.0 | 0.0 | 0.00 | 1.57 | 1.57 | 99 | 1013.6 |
| 20260905174143 | 27 | 12 | 0.0 | 0.0 | 0.43 | 1.57 | 1.57 | 99 | 1013.7 |
| 20260905173639 | 27 | 15 | 0.0 | 0.0 | 1.80 | 1.57 | 1.57 | 99 | 1013.6 |
| 20260905173134 | 26 | 12 | 0.0 | 0.0 | 3.07 | 1.52 | 1.52 | 99 | 1013.7 |
| 20260905172633 | 26 | 6 | 0.0 | 1.6 | 2.59 | 1.32 | 1.32 | 99 | 1013.8 |
| 20260905172128 | 27 | 8 | 1.6 | 3.2 | 0.71 | 1.02 | 1.02 | 99 | 1014.2 |
| 20260905171624 | 27 | 13 | 0.0 | 0.0 | 0.18 | 0.89 | 0.89 | 99 | 1014.3 |
| 20260905171120 | 27 | 11 | 0.0 | 0.0 | 2.16 | 0.89 | 0.89 | 98 | 1014.2 |
| 20260905170616 | 27 | 22 | 0.0 | 0.0 | 5.33 | 0.89 | 0.89 | 98 | 1014.5 |
| 20260905170111 | 27 | 6 | 1.6 | 1.6 | 4.27 | 0.71 | 0.71 | 96 | 1014.4 |
| 20260905165606 | 30 | 358 | 9.7 | 12.9 | 0.43 | 0.08 | 0.08 | 89 | 1014.2 |
| 20260905165101 | 31 | 4 | 3.2 | 3.2 | 0.00 | 0.00 | 0.00 | 81 | 1014.3 |
| 20260905164555 | 31 | 321 | 3.2 | 3.2 | 0.00 | 0.00 | 0.00 | 82 | 1014.4 |
| 20260905164050 | 31 | 336 | 3.2 | 4.8 | 0.00 | 0.00 | 0.00 | 79 | 1014.2 |
| 20260905163546 | 31 | 22 | 1.6 | 3.2 | 0.00 | 0.00 | 0.00 | 79 | 1014.6 |
| 20260905163042 | 31 | 344 | 3.2 | 4.8 | 0.00 | 0.00 | 0.00 | 83 | 1014.3 |
| 20260905162538 | 31 | 357 | 3.2 | 4.8 | 0.00 | 0.00 | 0.00 | 79 | 1014.5 |
| 20260905162037 | 30 | 289 | 6.4 | 11.3 | 0.00 | 0.00 | 0.00 | 83 | 1014.6 |
| 20260905161532 | 31 | 310 | 6.4 | 8.0 | 0.00 | 0.00 | 0.00 | 81 | 1014.7 |
| 20260905161030 | 30 | 337 | 4.8 | 4.8 | 0.00 | 0.00 | 0.00 | 84 | 1014.8 |
| 20260905160529 | 30 | 265 | 4.8 | 4.8 | 0.00 | 0.00 | 0.00 | 83 | 1014.9 |
| 20260905160029 | 30 | 317 | 4.8 | 4.8 | 0.00 | 0.00 | 0.00 | 84 | 1014.8 |
| 20260905155529 | 30 | 339 | 1.6 | 3.2 | 0.00 | 0.00 | 0.00 | 83 | 1015.0 |
| 20260905155027 | 30 | 359 | 4.8 | 4.8 | 0.00 | 0.00 | 0.00 | 86 | 1015.0 |
| 20260905154522 | 30 | 353 | 3.2 | 4.8 | 0.00 | 0.00 | 0.00 | 87 | 1015.0 |
| 20260905154018 | 30 | 312 | 4.8 | 8.0 | 0.00 | 0.00 | 0.00 | 86 | 1015.2 |
| 20260905153514 | 30 | 286 | 4.8 | 4.8 | 0.00 | 0.00 | 0.00 | 88 | 1015.0 |
| 20260905153014 | 30 | 267 | 4.8 | 4.8 | 0.00 | 0.00 | 0.00 | 87 | 1015.2 |
| 20260905152514 | 30 | 281 | 4.8 | 8.0 | 0.00 | 0.00 | 0.00 | 89 | 1015.1 |
| 20260905152009 | 29 | 320 | 4.8 | 4.8 | 0.00 | 0.00 | 0.00 | 90 | 1015.2 |
| 20260905151504 | 28 | 317 | 4.8 | 4.8 | 0.00 | 0.00 | 0.00 | 91 | 1015.3 |
| 20260905150959 | 28 | 353 | 0.0 | 1.6 | 0.00 | 0.00 | 0.00 | 93 | 1015.1 |
| 20260905150454 | 28 | 290 | 3.2 | 3.2 | 0.00 | 0.00 | 0.00 | 96 | 1015.2 |
| 20260905145950 | 28 | 8 | 1.6 | 3.2 | 0.00 | 0.00 | 0.00 | 97 | 1015.3 |
| 20260905145445 | 28 | 298 | 3.2 | 3.2 | 0.00 | 0.00 | 0.00 | 96 | 1015.3 |
| 20260905144944 | 28 | 351 | 3.2 | 3.2 | 0.00 | 0.00 | 0.00 | 98 | 1015.5 |
| 20260905144440 | 27 | 253 | 3.2 | 3.2 | 0.00 | 0.00 | 0.00 | 98 | 1015.3 |
| 20260905143939 | 26 | 358 | 3.2 | 3.2 | 0.00 | 0.00 | 0.00 | 99 | 1015.3 |
| 20260905143438 | 27 | 332 | 4.8 | 8.0 | 0.00 | 0.00 | 0.00 | 99 | 1015.2 |
| 20260905142933 | 26 | 318 | 3.2 | 3.2 | 0.00 | 0.00 | 0.00 | 99 | 1015.3 |
| 20260905142432 | 26 | 336 | 4.8 | 4.8 | 0.00 | 0.00 | 0.00 | 99 | 1015.1 |
| 20260905141927 | 26 | 294 | 4.8 | 4.8 | 0.00 | 0.00 | 0.00 | 99 | 1015.1 |